Haines, AK

7:14 AM AKDT on May 25, 2017 (GMT -0800)
Haines

Weather History for PAHN - January, 2013

Change the Weather History Date:

Tuesday, January 1, 2013

  Actual Average Record
Temperature  
Mean Temperature 39 °F -  
Max Temperature 41 °F 27 °F 43 °F (1981)
Min Temperature 37 °F 19 °F -12 °F (1985)
Degree Days  
Heating Degree Days 26    
Moisture  
Dew Point 33 °F    
Average Humidity 81    
Maximum Humidity 93    
Minimum Humidity 67    
Precipitation  
Precipitation 0.28 in - - ()
Sea Level Pressure  
Sea Level Pressure 29.96 in    
Wind  
Wind Speed 12 mph (East)    
Max Wind Speed 24 mph    
Max Gust Speed 38 mph    
Visibility 9 miles    
Events Rain    
Averages and records for this station are not official NWS values.
T = Trace of Precipitation, MM = Missing Value Source: NWS Daily Summary

Daily Weather History Graph

Daily Weather History Graph

Search for Another Location

Airport or City:

Trip Planner

Search our weather history database for the weather conditions in past years. The results will help you decide how hot, cold, wet, or windy it might be!

Date:

Astronomy

Jan. 01, 2013 Rise Set
Actual Time 8:57 AM AKST 3:14 PM AKST
Civil Twilight 8:03 AM AKST 4:09 PM AKST
Nautical Twilight 7:08 AM AKST 5:03 PM AKST
Astronomical Twilight 6:18 AM AKST 5:53 PM AKST
Moon 9:11 PM AKST (1/1) 10:02 AM AKST (1/1)
Length of Visible Light 8h 06m
Length of Day
6h 17m
Waning Gibbous, 82% of the Moon is Illuminated
Jan 1
Waning Gibbous
Jan 4
Last Quarter
Jan 11
New
Jan 18
First Quarter
Jan 26
Full

Hourly Weather History & Observations

Time (AKST) Temp. Windchill Dew Point Humidity Pressure Visibility Wind Dir Wind Speed Gust Speed Precip Events Conditions
12:24 AM 39.2 °F 32.5 °F 33.8 °F 81% 30.22 in 10.0 mi East 10.4 mph 17.3 mph N/A   Scattered Clouds
12:52 AM 39.2 °F 32.0 °F 33.8 °F 81% 30.23 in 10.0 mi East 11.5 mph 18.4 mph N/A   Mostly Cloudy
12:54 AM 39.0 °F 32.3 °F 34.0 °F 82% 30.24 in 10.0 mi East 10.4 mph 19.6 mph N/A   Mostly Cloudy
1:54 AM 39.0 °F 34.0 °F 34.0 °F 82% 30.22 in 10.0 mi Variable 6.9 mph - N/A   Overcast
2:22 AM 39.2 °F 32.5 °F 33.8 °F 81% 30.20 in 10.0 mi East 10.4 mph 18.4 mph N/A   Scattered Clouds
3:33 AM 39.2 °F 33.0 °F 33.8 °F 81% 30.21 in 10.0 mi ENE 9.2 mph - N/A   Mostly Cloudy
3:54 AM 39.0 °F 34.0 °F 33.1 °F 79% 30.23 in 10.0 mi SSE 6.9 mph - N/A   Overcast
4:44 AM 37.4 °F 31.4 °F 33.8 °F 87% 30.17 in 10.0 mi East 8.1 mph - N/A   Scattered Clouds
4:54 AM 39.0 °F 33.4 °F 33.1 °F 79% 30.18 in 10.0 mi East 8.1 mph - N/A   Mostly Cloudy
5:54 AM 39.0 °F 32.3 °F 32.0 °F 76% 30.15 in 10.0 mi SE 10.4 mph - N/A   Overcast
6:54 AM 37.9 °F 30.5 °F 32.0 °F 79% 30.12 in 10.0 mi SE 11.5 mph - N/A   Overcast
7:54 AM 39.9 °F 32.5 °F 30.9 °F 70% 30.07 in 10.0 mi East 12.7 mph 19.6 mph N/A   Overcast
8:54 AM 39.9 °F 32.9 °F 30.9 °F 70% 30.07 in 10.0 mi East 11.5 mph 20.7 mph 0.00 in Rain Light Rain
9:54 AM 37.9 °F 35.5 °F 32.0 °F 79% 30.02 in 10.0 mi East 3.5 mph - 0.00 in   Overcast
10:54 AM 37.9 °F 32.1 °F 32.0 °F 79% 30.03 in 10.0 mi ENE 8.1 mph - N/A   Overcast
11:14 AM 37.4 °F 29.8 °F 32.0 °F 81% 29.99 in 9.0 mi ENE 11.5 mph 18.4 mph 0.00 in Rain Light Rain
11:44 AM 39.2 °F 32.0 °F 32.0 °F 75% 29.95 in 10.0 mi ENE 11.5 mph 23.0 mph 0.01 in   Overcast
11:54 AM 41.0 °F 34.3 °F 30.9 °F 67% 29.96 in 10.0 mi East 11.5 mph 19.6 mph 0.01 in   Overcast
12:54 PM 41.0 °F 33.9 °F 30.9 °F 67% 29.94 in 10.0 mi East 12.7 mph 18.4 mph 0.00 in Rain Light Rain
1:22 PM 39.2 °F 33.6 °F 32.0 °F 75% 29.91 in 10.0 mi ENE 8.1 mph 28.8 mph 0.00 in Rain Light Rain
1:45 PM 39.2 °F 30.8 °F 32.0 °F 75% 29.91 in 10.0 mi East 15.0 mph 24.2 mph 0.00 in Rain Light Rain
1:54 PM 39.0 °F 30.6 °F 32.0 °F 76% 29.90 in 10.0 mi East 15.0 mph 24.2 mph 0.00 in Rain Light Rain
2:54 PM 41.0 °F 33.5 °F 30.9 °F 67% 29.84 in 10.0 mi ENE 13.8 mph 23.0 mph 0.00 in Rain Light Rain
3:54 PM 39.9 °F 32.9 °F 32.0 °F 73% 29.84 in 10.0 mi ESE 11.5 mph 23.0 mph 0.01 in Rain Light Rain
4:47 PM 37.4 °F 28.2 °F 33.8 °F 87% 29.81 in 10.0 mi East 16.1 mph 29.9 mph 0.00 in Rain Light Rain
4:54 PM 37.0 °F 27.7 °F 33.1 °F 86% 29.81 in 10.0 mi East 16.1 mph 26.5 mph 0.00 in Rain Light Rain
5:54 PM 37.0 °F 27.0 °F 34.0 °F 89% 29.78 in 7.0 mi East 18.4 mph 31.1 mph 0.02 in Rain Light Rain
6:05 PM 37.4 °F 29.3 °F 33.8 °F 87% 29.77 in 8.0 mi East 12.7 mph 25.3 mph 0.01 in Rain Light Rain
6:21 PM 37.4 °F 27.2 °F 33.8 °F 87% 29.78 in 10.0 mi ESE 19.6 mph 32.2 mph 0.02 in Rain Light Rain
6:54 PM 37.9 °F 28.2 °F 34.0 °F 86% 29.77 in 7.0 mi ESE 18.4 mph 35.7 mph 0.05 in Rain Light Rain
7:54 PM 37.9 °F 28.2 °F 35.1 °F 89% 29.75 in 5.0 mi ESE 18.4 mph 36.8 mph 0.07 in Rain Light Rain
8:54 PM 37.0 °F 25.6 °F 34.0 °F 89% 29.75 in 6.0 mi East 24.2 mph 34.5 mph 0.08 in Rain Light Rain
9:37 PM 37.4 °F 26.6 °F 33.8 °F 87% 29.75 in 7.0 mi ESE 21.9 mph 38.0 mph 0.04 in Rain Light Rain
9:54 PM 37.0 °F 26.4 °F 34.0 °F 89% 29.77 in 9.0 mi East 20.7 mph 34.5 mph 0.04 in Rain Light Rain
10:15 PM 37.4 °F 27.5 °F 33.8 °F 87% 29.76 in 10.0 mi East 18.4 mph 32.2 mph 0.00 in Rain Light Rain
10:38 PM 37.4 °F 27.5 °F 33.8 °F 87% 29.76 in 10.0 mi East 18.4 mph 35.7 mph 0.00 in Rain Light Rain
10:54 PM 37.0 °F 27.0 °F 35.1 °F 93% 29.77 in 10.0 mi East 18.4 mph 35.7 mph 0.00 in Rain Light Rain
11:54 PM 37.0 °F 32.4 °F 35.1 °F 93% 29.80 in 10.0 mi Variable 5.8 mph 19.6 mph 0.00 in   Overcast